DW5174 Weather Reports


Display with metric or nautical units.
time (UTC)temp
F
wind
direction
speed
MPH
gust
MPH
rain 1hr
in
rain 24hr
in
rain mn
in
humidity
%
barometer
mb
20260503005705 51 340 4.0 7.0 0.07 0.14 0.11 96 1012.5
20260503005204 51 348 6.0 7.0 0.07 0.14 0.11 96 1012.5
20260503004704 51 11 5.0 5.0 0.08 0.14 0.11 96 1012.5
20260503003705 51 30 0.0 5.0 0.06 0.11 0.08 96 1012.6
20260503003205 51 23 0.0 1.0 0.04 0.09 0.06 96 1012.5
20260503002205 51 46 0.0 0.0 0.03 0.08 0.05 96 1012.6
20260503001704 51 46 0.0 0.0 0.04 0.08 0.05 96 1012.6
20260503001204 51 46 0.0 0.0 0.04 0.08 0.05 96 1012.7
20260503000705 52 46 0.0 3.0 0.03 0.07 0.04 95 1012.7
20260503000205 52 46 0.0 3.0 0.04 0.07 0.04 95 1012.7
20260502235705 52 46 0.0 3.0 0.05 0.07 0.04 95 1012.7
20260502235232 52 46 0.0 0.0 0.05 0.06 0.03 95 1012.8
20260502234705 52 23 0.0 0.0 0.06 0.06 0.03 94 1012.7
20260502234204 52 23 0.0 2.0 0.06 0.06 0.03 94 1012.8
20260502233704 52 23 0.0 2.0 0.05 0.05 0.02 94 1012.7
20260502233204 52 23 0.0 2.0 0.05 0.05 0.02 94 1012.8
20260502232205 52 23 0.0 3.0 0.04 0.04 0.01 94 1012.7
20260502231705 52 23 0.0 4.0 0.04 0.04 0.01 94 1012.7
20260502231205 52 37 0.0 5.0 0.04 0.04 0.01 94 1012.7
20260502230204 52 37 2.0 5.0 0.03 0.03 0.03 93 1012.8
20260502225705 52 77 0.0 5.0 0.01 0.01 0.01 93 1012.8
20260502225205 52 99 1.0 6.0 0.01 0.01 0.01 93 1012.8
20260502224704 52 84 2.0 6.0 0.00 0.00 0.00 93 1012.8
20260502224205 52 95 2.0 6.0 0.00 0.00 0.00 93 1012.9
20260502223704 52 70 0.0 6.0 0.00 0.00 0.00 93 1012.9
20260502223205 52 71 3.0 6.0 0.00 0.00 0.00 93 1012.9
20260502222704 52 73 0.0 5.0 0.00 0.00 0.00 92 1012.9
20260502222205 52 53 0.0 4.0 0.00 0.00 0.00 92 1013.0
20260502221705 52 53 0.0 4.0 0.00 0.00 0.00 92 1012.9
20260502221204 52 49 0.0 4.0 0.00 0.00 0.00 92 1012.9
20260502220704 52 88 0.0 0.0 0.00 0.00 0.00 92 1012.9
20260502220204 51 106 0.0 0.0 0.00 0.00 0.00 93 1013.0
20260502215705 51 106 0.0 5.0 0.00 0.00 0.00 93 1013.0
20260502214705 51 106 0.0 5.0 0.00 0.00 0.00 92 1012.9
20260502214204 51 108 1.0 4.0 0.00 0.00 0.00 92 1012.9
20260502213704 51 112 2.0 0.0 0.00 0.00 0.00 92 1012.9
20260502213204 51 66 0.0 2.0 0.00 0.00 0.00 90 1012.9
20260502212704 51 66 0.0 2.0 0.00 0.00 0.00 90 1012.9
20260502212205 51 66 0.0 2.0 0.00 0.00 0.00 90 1012.9
20260502211704 51 66 0.0 2.0 0.00 0.00 0.00 89 1012.9
20260502211204 51 85 0.0 0.0 0.00 0.00 0.00 89 1012.9
20260502210704 51 85 0.0 0.0 0.00 0.00 0.00 87 1012.9
20260502210205 51 85 0.0 0.0 0.00 0.00 0.00 87 1012.9
20260502205705 51 85 0.0 0.0 0.00 0.00 0.00 87 1012.9
20260502205205 51 85 0.0 0.0 0.00 0.00 0.00 87 1012.8
20260502204205 52 85 0.0 0.0 0.00 0.00 0.00 87 1012.8
20260502203705 52 85 0.0 0.0 0.00 0.00 0.00 86 1012.8
20260502203205 52 85 0.0 0.0 0.00 0.00 0.00 86 1012.8
20260502202704 52 85 0.0 0.0 0.00 0.00 0.00 86 1012.8
20260502202205 52 85 0.0 2.0 0.00 0.00 0.00 86 1012.8
20260502201704 52 85 0.0 2.0 0.00 0.00 0.00 85 1012.8
20260502201204 52 85 0.0 3.0 0.00 0.00 0.00 85 1012.8
20260502200705 52 85 0.0 3.0 0.00 0.00 0.00 85 1012.8
20260502200204 53 85 0.0 3.0 0.00 0.00 0.00 85 1012.8
20260502195704 53 149 0.0 5.0 0.00 0.00 0.00 85 1012.8
20260502195204 53 105 0.0 5.0 0.00 0.00 0.00 85 1012.8
20260502194704 53 94 0.0 5.0 0.00 0.00 0.00 85 1012.7
20260502194205 53 90 0.0 7.0 0.00 0.00 0.00 85 1012.7
20260502193705 53 112 0.0 7.0 0.00 0.00 0.00 84 1012.6
20260502193205 53 187 2.0 7.0 0.00 0.00 0.00 84 1012.6
20260502192705 53 105 0.0 7.0 0.00 0.00 0.00 84 1012.5
20260502192205 53 111 4.0 6.0 0.00 0.00 0.00 84 1012.5
20260502191704 53 98 0.0 6.0 0.00 0.00 0.00 84 1012.5
20260502191205 53 98 0.0 8.0 0.00 0.00 0.00 84 1012.5
20260502190705 54 105 0.0 8.0 0.00 0.00 0.00 83 1012.5
20260502190205 54 108 1.0 8.0 0.00 0.00 0.00 83 1012.5
20260502185204 54 209 3.0 6.0 0.00 0.00 0.00 83 1012.5
20260502184704 54 84 2.0 6.0 0.00 0.00 0.00 83 1012.6
20260502184205 54 164 1.0 7.0 0.00 0.00 0.00 83 1012.5
20260502183704 54 88 1.0 10.0 0.00 0.00 0.00 83 1012.5
20260502183204 55 163 3.0 10.0 0.00 0.00 0.00 83 1012.5
20260502182705 55 108 0.0 10.0 0.00 0.00 0.00 83 1012.4
20260502182205 55 178 4.0 10.0 0.00 0.00 0.00 83 1012.5
20260502181705 55 202 6.0 10.0 0.00 0.00 0.00 83 1012.5
20260502180705 55 163 2.0 11.0 0.00 0.00 0.00 83 1012.5
20260502180205 55 170 0.0 11.0 0.00 0.00 0.00 82 1012.6
20260502170205 55 146 0.0 10.0 0.00 0.00 0.00 82 1012.6
20260502164204 55 143 1.0 8.0 0.00 0.00 0.00 81 1012.6
20260502163704 55 129 3.0 9.0 0.00 0.00 0.00 81 1012.6
20260502163205 55 113 2.0 10.0 0.00 0.00 0.00 79 1012.5
20260502162704 55 151 5.0 10.0 0.00 0.00 0.00 79 1012.5
20260502162204 55 154 2.0 10.0 0.00 0.00 0.00 81 1012.5
20260502161704 55 205 4.0 10.0 0.00 0.00 0.00 81 1012.5
20260502161204 55 160 5.0 10.0 0.00 0.00 0.00 81 1012.5
20260502160704 55 151 1.0 10.0 0.00 0.00 0.00 81 1012.5
20260502160204 55 111 3.0 9.0 0.00 0.00 0.00 82 1012.5
20260502152205 55 167 5.0 11.0 0.00 0.00 0.00 81 1012.7
20260502150705 56 125 2.0 13.0 0.00 0.00 0.00 78 1012.8
20260502150205 56 144 5.0 12.0 0.00 0.00 0.00 79 1012.8
20260502130704 58 127 9.0 13.0 0.00 0.00 0.00 79 1013.8
20260502130204 58 165 2.0 15.0 0.00 0.00 0.00 79 1013.8
20260502123704 57 116 7.0 13.0 0.00 0.00 0.00 81 1014.0
20260502122205 57 165 4.0 13.0 0.00 0.00 0.00 82 1014.2
20260502121705 57 149 6.0 13.0 0.00 0.00 0.00 82 1014.3
20260502121205 57 156 3.0 13.0 0.00 0.00 0.00 82 1014.3
20260502120704 57 177 4.0 11.0 0.00 0.00 0.00 82 1014.5
20260502114705 57 91 4.0 14.0 0.00 0.00 0.00 84 1014.8
20260502114204 57 171 7.0 14.0 0.00 0.00 0.00 85 1014.9
20260502113704 56 164 7.0 12.0 0.00 0.00 0.00 84 1015.0
20260502113205 56 205 8.0 12.0 0.00 0.00 0.00 84 1015.0
20260502112705 56 147 4.0 12.0 0.00 0.00 0.00 84 1015.2
20260502112204 56 146 4.0 12.0 0.00 0.00 0.00 84 1015.2
20260502111705 56 130 7.0 11.0 0.00 0.00 0.00 84 1015.2
20260502111205 56 111 3.0 12.0 0.00 0.00 0.00 84 1015.2
20260502110704 56 208 4.0 14.0 0.00 0.00 0.00 85 1015.2
20260502110204 56 127 2.0 14.0 0.00 0.00 0.00 85 1015.3
20260502105205 55 133 9.0 13.0 0.00 0.00 0.00 85 1015.4
20260502104705 55 149 6.0 13.0 0.00 0.00 0.00 86 1015.5
20260502103705 55 125 6.0 13.0 0.00 0.00 0.00 87 1015.5
20260502103204 55 151 4.0 13.0 0.00 0.00 0.00 87 1015.5
20260502102704 54 175 0.0 12.0 0.00 0.00 0.00 87 1015.5
20260502102204 54 182 7.0 14.0 0.00 0.00 0.00 87 1015.6
20260502101704 54 135 2.0 14.0 0.00 0.00 0.00 86 1015.6
20260502101204 54 70 5.0 14.0 0.00 0.00 0.00 86 1015.6
20260502100704 54 154 6.0 12.0 0.00 0.00 0.00 86 1015.7
20260502091234 55 151 6.0 17.0 0.00 0.00 0.00 84 1015.9
20260502090705 54 174 8.0 14.0 0.00 0.00 0.00 84 1016.0
20260502090204 54 116 9.0 13.0 0.00 0.00 0.00 83 1016.0
20260502071205 53 126 4.0 9.0 0.00 0.00 0.00 89 1016.5
20260502070705 53 92 1.0 9.0 0.00 0.00 0.00 89 1016.5
20260502070204 53 112 2.0 9.0 0.00 0.00 0.00 89 1016.6
20260502065205 53 216 0.0 7.0 0.00 0.00 0.00 89 1016.6
20260502064704 52 74 4.0 6.0 0.00 0.00 0.00 89 1016.6
20260502063704 52 185 1.0 8.0 0.00 0.00 0.00 90 1016.6
20260502063204 52 60 0.0 8.0 0.00 0.00 0.00 90 1016.6
20260502062705 52 64 1.0 8.0 0.00 0.00 0.00 90 1016.6
20260502062205 52 99 3.0 7.0 0.00 0.00 0.00 90 1016.7
20260502061705 52 106 1.0 7.0 0.00 0.00 0.00 90 1016.7
20260502061205 52 70 3.0 7.0 0.00 0.00 0.00 90 1016.6
20260502060705 52 113 1.0 5.0 0.00 0.00 0.00 90 1016.6
20260502060205 52 115 0.0 5.0 0.00 0.00 0.00 90 1016.7
20260502055704 51 137 0.0 9.0 0.00 0.00 0.00 90 1016.7
20260502055205 51 84 0.0 9.0 0.00 0.00 0.00 90 1016.6
20260502054704 51 99 0.0 9.0 0.00 0.00 0.00 90 1016.6
20260502053705 52 118 2.0 8.0 0.00 0.00 0.00 90 1016.6
20260502053205 52 113 2.0 10.0 0.00 0.00 0.00 90 1016.6
20260502052705 52 158 2.0 10.0 0.00 0.00 0.00 90 1016.7
20260502052205 52 154 2.0 10.0 0.00 0.00 0.00 90 1016.7
20260502051704 52 75 3.0 10.0 0.00 0.00 0.00 90 1016.6
20260502051204 52 150 6.0 10.0 0.00 0.00 0.00 90 1016.7
20260502050704 52 171 0.0 10.0 0.00 0.00 0.00 90 1016.7
20260502050205 52 184 0.0 10.0 0.00 0.00 0.00 90 1016.7
20260502045704 52 199 4.0 8.0 0.00 0.00 0.00 92 1016.7
20260502045205 52 156 2.0 8.0 0.00 0.00 0.00 92 1016.8
20260502044705 51 127 0.0 8.0 0.00 0.00 0.00 93 1016.9
20260502044205 51 105 2.0 8.0 0.00 0.00 0.00 93 1016.9
20260502043704 51 135 3.0 10.0 0.00 0.00 0.00 93 1017.0
20260502043205 51 164 1.0 10.0 0.00 0.00 0.00 93 1017.0
20260502042205 51 185 4.0 9.0 0.00 0.00 0.00 94 1017.1
20260502041705 51 163 1.0 8.0 0.00 0.00 0.00 94 1017.1
20260502040704 51 81 5.0 8.0 0.00 0.00 0.00 94 1017.1
20260502040205 51 164 5.0 5.0 0.00 0.00 0.00 94 1017.1
20260502035705 51 165 1.0 5.0 0.00 0.00 0.00 94 1017.1
20260502035206 51 105 0.0 6.0 0.00 0.00 0.00 93 1017.2
20260502034205 50 115 0.0 8.0 0.00 0.00 0.00 93 1017.3
20260502033205 50 126 2.0 8.0 0.00 0.00 0.00 93 1017.3
20260502032704 50 112 1.0 8.0 0.00 0.00 0.00 93 1017.3
20260502032205 50 158 5.0 8.0 0.00 0.00 0.00 93 1017.3
20260502031705 50 126 4.0 7.0 0.00 0.00 0.00 93 1017.3
20260502031230 50 85 1.0 3.0 0.00 0.00 0.00 93 1017.4
20260502030705 50 119 0.0 3.0 0.00 0.00 0.00 93 1017.4
20260502030223 50 119 0.0 3.0 0.00 0.00 0.00 92 1017.5
20260502025204 50 129 1.0 6.0 0.00 0.00 0.00 92 1017.5
20260502024704 51 126 0.0 6.0 0.00 0.00 0.00 92 1017.6
20260502024205 51 85 0.0 6.0 0.00 0.00 0.00 92 1017.6
20260502023205 51 181 0.0 6.0 0.00 0.00 0.00 92 1017.8
20260502022705 51 164 1.0 6.0 0.00 0.00 0.00 92 1017.8
20260502022205 51 73 0.0 6.0 0.00 0.00 0.00 92 1017.9
20260502021705 51 71 0.0 6.0 0.00 0.00 0.00 92 1017.9
20260502021205 51 127 2.0 5.0 0.00 0.00 0.00 92 1018.0
20260502020705 51 111 2.0 5.0 0.00 0.00 0.00 92 1018.1
20260502020205 51 143 0.0 5.0 0.00 0.00 0.00 92 1018.1
20260502015705 51 90 2.0 5.0 0.00 0.00 0.00 92 1018.1
20260502015205 51 82 1.0 5.0 0.00 0.00 0.00 92 1018.2
20260502014705 51 160 1.0 3.0 0.00 0.00 0.00 92 1018.2
20260502014205 51 122 0.0 4.0 0.00 0.00 0.00 92 1018.3
20260502013705 51 122 0.0 5.0 0.00 0.00 0.00 92 1018.3
20260502013204 51 122 0.0 7.0 0.00 0.00 0.00 92 1018.3
20260502012705 51 104 0.0 7.0 0.00 0.00 0.00 92 1018.3
20260502012204 51 109 2.0 8.0 0.00 0.00 0.00 92 1018.4
20260502011704 51 90 1.0 8.0 0.00 0.00 0.00 92 1018.4
20260502010705 51 133 1.0 7.0 0.00 0.00 0.00 90 1018.4
20260502010205 51 127 4.0 7.0 0.00 0.00 0.00 90 1018.5